Regional Weather Roundup
Issued by NWS Albany, NY

Home | Current Version | Previous Version | Text Only | Print | Product List | Glossary On
Versions: 1 2 3 4 5 6 7 8 9 10 11 12 13 14 15 16 17 18 19 20 21 22 23 24 25 26 27 28 29 30 31 32 33 34 35 36 37 38 39 40 41 42 43 44 45 46 47 48 49 50
000
ASUS41 KALY 251310
RWRALY

NEW YORK STATE HOURLY WEATHER ROUNDUP
NATIONAL WEATHER SERVICE ALBANY NY
900 AM EDT TUE APR 25 2017

NOTE: "FAIR" INDICATES FEW OR NO CLOUDS BELOW 12,000 FEET WITH NO
SIGNIFICANT WEATHER AND/OR NO OBSTRUCTIONS TO VISIBILITY.

NYZ032-033-038>043-046>054-057>066-NYZ062>081-082-084-251400-
EAST


CITY           SKY/WX    TMP DP  RH WIND       PRES   REMARKS
ALBANY         LGT RAIN  47  34  60 N5        30.21S
GLENS FALLS    CLOUDY    46  32  58 N6        30.22S
POUGHKEEPSIE   CLOUDY    48  46  93 N6        30.15S
NEWBURGH       CLOUDY    48  46  93 E9        30.16R FOG
MONTGOMERY     CLOUDY    49  44  83 NE9       30.14S
WHITE PLAINS   CLOUDY    52  48  86 E15G24    30.10S
ISLIP          DRIZZLE   52  51  97 NE16G24   30.10S
NEW YORK CITY  CLOUDY    53  49  86 NE21G30   30.09F
CENTRAL PARK   CLOUDY    51  49  92 NE16G30   30.11F FOG
$$

NYZ005>009-017-018-044>046-055-056-251400-
CENTRAL


CITY           SKY/WX    TMP DP  RH WIND       PRES   REMARKS
FULTON         LGT RAIN  49  43  80 E8        30.10S
SYRACUSE       LGT RAIN  47  45  93 NE12      30.10S
ROME           LGT RAIN  50  41  71 E10       30.15F
ELMIRA         CLOUDY    53  44  71 SE6G20    30.06R
BINGHAMTON     LGT RAIN  46  43  89 SE16      30.08R FOG
MONTICELLO     CLOUDY    43  41  93 MISG      30.13S
$$

NYZ026>034-041>043-087-251400-
NORTH


CITY           SKY/WX    TMP DP  RH WIND       PRES   REMARKS
WATERTOWN      CLOUDY    53  41  63 CALM      30.12R
FORT DRUM      NOT AVBL
OGDENSBURG     FAIR      49  28  44 E8        30.15F
MASSENA        SUNNY     45  25  45 NE14      30.21S
SARANAC LAKE   CLOUDY    50  30  46 E5        30.15F
PLATTSBURGH    CLOUDY    45  25  45 CALM      30.24S
$$

NYZ001>004-010>016-019>021-085-251400-
WEST


CITY           SKY/WX    TMP DP  RH WIND       PRES   REMARKS
NIAGARA FALLS  RAIN      49  44  83 E8        30.00S
BUFFALO        LGT RAIN  48  45  89 NE8       30.00S
DUNKIRK        CLOUDY    50  48  93 NE6       29.97S
JAMESTOWN      CLOUDY    52  41  66 S8        29.97R
WELLSVILLE     CLOUDY    51  44  77 SE12      30.02S
ROCHESTER      LGT RAIN  50  46  86 E10       30.06S
PENN YAN       CLOUDY    50  44  80 CALM      30.06S
$$

             KEY
       WCI = WIND CHILL INDEX
       VSB = VISIBILITY
       HX  = HEAT INDEX
$$



USA.gov is the U.S. government's official web portal to all federal, state and local government web resources and services.